This is the latest recevied weather packets stored in our database for station/object KG4LKY-5. If no packets are shown the sender has not sent any weather packets the latest 10 day(s).
| Time | Temp. | Humidity | Pressure | Rain* | Wind** | Luminosity | Snow |
|---|---|---|---|---|---|---|---|
| 1777632617 | 1.67° C | 100% | 1015.2 hPa | 0 mm | - | - | - |
| 1777632317 | 2.22° C | 100% | 1015.1 hPa | 0 mm | - | - | - |
| 1777632017 | 1.67° C | 100% | 1015.2 hPa | 0 mm | - | - | - |
| 1777631716 | 1.11° C | 100% | 1015.2 hPa | 0 mm | - | - | - |
| 1777631415 | 1.67° C | 100% | 1015.3 hPa | 0 mm | - | - | - |
| 1777631115 | 1.67° C | 100% | 1015.4 hPa | 0 mm | - | - | - |
| 1777630814 | 1.67° C | 100% | 1015.3 hPa | 0 mm | - | - | - |
| 1777630513 | 2.22° C | 100% | 1015.3 hPa | 0 mm | - | - | - |
| 1777630213 | 1.67° C | 100% | 1015.4 hPa | 0 mm | - | - | - |
| 1777629912 | 2.22° C | 100% | 1015.3 hPa | 0 mm | - | - | - |
| 1777629612 | 2.22° C | 100% | 1015.2 hPa | 0 mm | - | - | - |
| 1777629312 | 1.67° C | 100% | 1015.2 hPa | 0 mm | - | - | - |
| 1777628712 | 1.67° C | 100% | 1015.2 hPa | 0 mm | - | - | - |
| 1777628411 | 1.67° C | 100% | 1015.2 hPa | 0 mm | - | - | - |
| 1777628111 | 2.22° C | 100% | 1015.2 hPa | 0 mm | - | - | - |
| 1777627811 | 2.22° C | 100% | 1015.4 hPa | 0 mm | - | - | - |
| 1777627511 | 1.67° C | 100% | 1015.4 hPa | 0 mm | - | - | - |
| 1777627210 | 2.22° C | 100% | 1015.6 hPa | 0 mm | - | - | - |
| 1777626910 | 1.67° C | 100% | 1015.6 hPa | 0 mm | - | - | - |
| 1777626610 | 1.67° C | 100% | 1015.7 hPa | 0 mm | - | - | - |
| 1777626309 | 2.22° C | 100% | 1015.6 hPa | 0 mm | - | - | - |
| 1777626009 | 2.78° C | 100% | 1015.7 hPa | 0 mm | - | - | - |
| 1777625709 | 2.22° C | 100% | 1015.7 hPa | 0 mm | - | - | - |
| 1777625409 | 2.22° C | 100% | 1015.8 hPa | 0 mm | - | - | - |
| 1777625108 | 2.78° C | 100% | 1015.8 hPa | 0 mm | - | - | - |
* Rain since midnight (hover to see other rain measurements)
** Current wind speed in m/s (hover to see current wind gust speed)